This demonstration page uses our WeatherBlox Daily Observations layout. Learn more.

Left ArrowRight Arrow

Hourly Observations for April 23, 2022

Temp ( °F °C ) Dew Point ( °F °C ) Humidity (%) Winds ( mph kmh ) Pressure ( in mb ) Visibility ( mi km ) Precip ( " mm )
12:54 am 00:54 Clear 48 8.9 41 5 77 77 N 3 6 30.20 1023 10 16 0.00 0.00
1:54 am 01:54 Clear 47 8.3 40 4.4 77 77 NW 5 7 30.20 1023 10 16 0.00 0.00
2:54 am 02:54 Clear 47 8.3 40 4.4 77 77 WNW 6 9 30.20 1023 10 16 0.00 0.00
3:54 am 03:54 Clear 46 7.8 40 4.4 79 79 NNW 6 9 30.22 1023 10 16 0.00 0.00
4:54 am 04:54 Clear 48 8.9 42 5.6 80 80 NW 8 13 30.22 1023 10 16 0.00 0.00
5:54 am 05:54 Clear 47 8.3 41 5 80 80 NNW 7 11 30.22 1023 10 16 0.00 0.00
6:54 am 06:54 Sunny 47 8.3 41 5 80 80 N 6 9 30.23 1024 10 16 0.00 0.00
7:54 am 07:54 Sunny 51 10.6 43 6.1 74 74 NNW 8 13 30.24 1024 10 16 0.00 0.00
8:54 am 08:54 Sunny 58 14.4 42 5.6 56 56 NNW 12 19 30.25 1024 10 16 0.00 0.00
9:54 am 09:54 Sunny 62 16.7 40 4.4 44 44 N 13 20 30.24 1024 10 16 0.00 0.00
10:54 am 10:54 Sunny 66 18.9 39 3.9 37 37 NNW 13 20 30.23 1024 10 16 0.00 0.00
11:54 am 11:54 Sunny 70 21.1 32 0 25 25 NNW 13 20 30.22 1023 10 16 0.00 0.00
12:54 pm 12:54 Sunny 72 22.2 29 -1.7 20 20 NNW 12 19 30.20 1023 10 16 0.00 0.00
1:54 pm 13:54 Sunny 73 22.8 31 -0.6 21 21 NNW 8 13 30.19 1022 10 16 0.00 0.00
2:54 pm 14:54 Sunny 75 23.9 28 -2.2 18 18 NW 12 19 30.17 1022 10 16 0.00 0.00
3:54 pm 15:54 Sunny 76 24.4 26 -3.3 16 16 N 3 6 30.14 1021 10 16 0.00 0.00
4:54 pm 16:54 Sunny 76 24.4 27 -2.8 16 16 NNE 8 13 30.12 1020 10 16 0.00 0.00
5:54 pm 17:54 Sunny 76 24.4 26 -3.3 16 16 N 9 15 30.11 1020 10 16 0.00 0.00
6:54 pm 18:54 Sunny 75 23.9 24 -4.4 15 15 N 7 11 30.10 1019 10 16 0.00 0.00
7:54 pm 19:54 Sunny 69 20.6 30 -1.1 23 23 Calm 30.10 1019 10 16 0.00 0.00
8:54 pm 20:54 Clear 61 16.1 33 0.6 35 35 WNW 7 11 30.10 1019 10 16 0.00 0.00
9:54 pm 21:54 Clear 58 14.4 33 0.6 39 39 WNW 5 7 30.12 1020 10 16 0.00 0.00
10:54 pm 22:54 Clear 61 16.1 33 0.6 35 35 NW 8 13 30.12 1020 10 16 0.00 0.00
11:54 pm 23:54 Clear 60 15.6 36 2.2 41 41 NW 8 13 30.12 1020 10 16 0.00 0.00

Powered by AerisWeather